[[{"header":{"parameterUnit":"m.s-1","parameterCategory":1,"la1":30.2991,"la2":30.254,"lo1":-89.0895,"lo2":-89.0444,"dy":0.0017,"dx":0.0017,"nx":28,"ny":28,"refTime":"2023-08-14T09:00:00:Z","depth":0,"parameterNumber":2,"parameterNumberName":"U-component_of_WINDS"},"data":[0,0,0,0,0,0,0,0,0,0,0,0,0,0,0,0,0,0,0,0,0,0,0,0,0,0,0,0,0,0,0,0,0,0,0,0,0,0,0,0,0,0,0,0,0,0,0,0,0,0,0,0,0,0,0,0,0,0,5.2713,5.2715,0,5.2875,5.2877,5.2879,5.2817,5.2814,5.281,5.2806,5.2975,5.2983,5.299,0,0,0,0,0,0,0,0,0,0,0,0,0,5.2354,5.2361,5.2713,5.2715,5.2717,5.2875,5.2877,5.2879,5.2818,5.2813,5.2809,5.2805,5.2972,5.2982,5.2991,0,0,0,0,0,0,0,0,0,0,0,0,0,5.2512,5.2363,5.2713,5.2706,5.2707,5.2874,5.2877,5.288,5.2819,5.2813,5.2808,5.2803,5.2969,5.2981,5.2993,5.3178,0,0,5.3029,5.3034,0,0,0,0,0,0,0,0,5.2504,5.2526,5.2705,5.2707,5.2708,5.282,5.2812,5.298,5.282,5.2776,5.2806,5.28,5.2928,5.2943,5.2986,5.3186,5.3193,5.303,5.3037,5.3042,5.3046,0,0,0,0,0,0,0,5.2493,5.2518,5.2777,5.2707,5.2709,5.2695,5.2712,5.2844,5.2882,5.278,5.2776,5.2796,5.2928,5.2974,5.2989,5.3195,5.303,5.304,5.3048,5.3052,5.3555,5.3561,0,0,0,0,0,0,5.2481,5.251,5.2772,5.2782,5.259,5.2706,5.2724,5.279,5.288,5.2888,5.28,5.2792,5.2957,5.2975,5.2995,5.3218,5.3042,5.3053,5.306,5.3549,5.3557,5.3564,0,0,0,0,0,0,5.2473,5.2505,5.2766,5.2645,5.2677,5.2718,5.2792,5.2796,5.2842,5.2895,5.2902,5.284,5.2953,5.2978,5.3133,5.3223,5.3059,5.307,5.3542,5.3552,5.356,5.3664,0,0,0,0,0,0,5.2463,5.2502,5.2573,5.2647,5.2684,5.29,5.2798,5.2803,5.2863,5.2854,5.2935,5.2943,5.2951,5.3115,5.3144,5.3236,5.3079,5.3534,5.3546,5.3557,5.3653,5.3676,5.3696,0,0,0,0,0,5.2451,5.2596,5.2577,5.2609,5.2772,5.2905,5.2927,5.2931,5.287,5.2942,5.2976,5.2941,5.3208,5.3131,5.3164,5.3261,5.3528,5.3543,5.3556,5.3644,5.3672,5.3695,0,0,0,0,0,0,5.2533,5.2606,5.2585,5.2759,5.2826,5.2895,5.2985,5.2961,5.3048,5.3036,5.3039,5.3058,5.3217,5.3254,5.3168,5.3445,5.3359,5.338,5.3414,5.3442,5.3462,5.345,5.3089,0,0,0,0,0,5.2571,5.2672,5.2731,5.2879,5.2913,5.2944,5.3002,5.3,5.307,5.3099,5.3144,5.3214,5.3314,5.338,5.3475,5.3658,5.3675,5.3741,5.3762,5.3779,5.3798,5.3897,5.3927,5.3609,5.3609,5.3609,0,0,5.2651,5.2703,5.2767,5.2896,5.2948,5.3054,5.2968,5.3083,5.3162,5.3116,5.3264,5.33,5.3379,5.3549,5.3626,5.3585,5.3889,5.3797,5.3811,5.382,5.3915,5.3945,5.3972,5.3619,5.3617,5.3616,0,0,5.2851,5.2901,5.3029,5.3083,5.3162,5.3181,5.3212,5.3285,5.3306,5.3455,5.3423,5.3517,5.3689,5.3746,5.3798,5.402,5.3991,5.4051,5.4162,5.4259,5.4284,5.4306,5.4385,5.4414,5.4069,5.4069,5.4069,0,5.2941,5.3097,5.3098,5.3216,5.3274,5.3237,5.3367,5.342,5.3527,5.3568,5.352,5.3734,5.3785,5.3968,5.4022,5.4065,5.4101,5.4041,5.428,5.4303,5.4324,5.4399,5.4428,5.4076,5.4075,5.4074,5.4073,0,5.3204,5.3313,5.3407,5.351,5.3579,5.3702,5.3723,5.3792,5.3784,5.3809,5.3961,5.402,5.4126,5.4169,5.4163,5.4352,5.4323,5.4278,5.4192,5.436,5.4431,5.446,5.4085,5.4083,5.4081,5.4079,0,0,5.346,5.3561,5.3596,5.3642,5.3727,5.3812,5.3934,5.4037,5.4096,5.4171,5.4274,5.442,5.4379,5.4438,5.4438,5.4523,5.4695,5.4468,5.4469,5.4508,5.4906,5.4939,5.4972,5.4676,5.4682,5.4686,5.4899,0,5.3666,5.3879,5.3884,5.408,5.418,5.4147,5.4253,5.4317,5.4343,5.4433,5.4462,5.4566,5.4504,5.4539,5.4622,5.4656,5.4775,5.4641,5.4772,5.4777,5.4753,5.5009,5.5045,5.5243,5.4927,5.4931,5.4935,0,5.3935,5.4018,5.4223,5.4293,5.4336,5.4431,5.4525,5.4612,5.4684,5.4697,5.4763,5.475,5.4875,5.4786,5.4959,5.4868,5.4922,5.4947,5.4955,5.4967,5.4866,5.5028,5.5306,5.5336,5.4979,5.4975,5.4972,0,5.4101,5.4264,5.4408,5.4448,5.4533,5.4601,5.464,5.4707,5.4768,5.4851,5.4891,5.4988,5.5041,5.5117,5.5131,5.5064,5.5304,5.5216,5.5319,5.5319,5.5371,5.5368,5.5661,5.5407,5.5406,5.5406,5.5405,0,5.4331,5.4458,5.4483,5.4572,5.4713,5.4718,5.4858,5.4891,5.4951,5.5046,5.5023,5.5113,5.5126,5.5219,5.5231,5.5373,5.5397,5.5412,5.5413,5.5414,5.5412,5.5449,5.5435,5.5414,5.5412,5.541,5.5409,0,5.454,5.4562,5.4717,5.4784,5.4804,5.4906,5.4964,5.5049,5.5072,5.5193,5.5221,5.5259,5.5367,5.5389,5.5518,5.5526,5.5694,5.5682,5.5669,5.5668,5.577,5.576,5.6098,5.6142,5.5859,5.5861,5.5863,0,5.4686,5.4782,5.486,5.4921,5.4963,5.5063,5.5125,5.5133,5.5199,5.5288,5.5363,5.5468,5.5553,5.5729,5.5768,5.5866,5.5857,5.5968,5.5871,5.5868,5.5858,5.5852,5.5861,5.5987,5.599,5.5992,5.5994,0,5.4941,5.4947,5.5036,5.5131,5.5205,5.528,5.5351,5.5403,5.542,5.5496,5.5606,5.5672,5.5802,5.5908,5.6006,5.6047,5.6025,5.6024,5.6053,5.6055,5.6043,5.605,5.572,5.6017,5.6014,5.6013,5.6012,5.6011,5.5123,5.5207,5.5274,5.5375,5.5429,5.5496,5.5579,5.5612,5.5703,5.581,5.5809,5.593,5.6,5.6129,5.6176,5.6271,5.6236,5.6278,5.6289,5.6299,5.6308,5.6028,5.6289,5.6288,5.6288,5.6287,5.6287,0,5.5376,5.5418,5.5511,5.561,5.5689,5.566,5.5736,5.5805,5.5911,5.5977,5.6061,5.6188,5.629,5.6337,5.6438,5.6505,5.6497,5.6531,5.6526,5.6536,5.6334,5.6298,5.6536,5.6536,5.6536,5.6536,5.6536,5.6536,5.5518,5.5659,5.5672,5.584,5.5881,5.5997,5.6044,5.6105,5.6158,5.63,5.6384,5.6414,5.6473,5.6577,5.667,5.6681,5.6719,5.6759,5.6765,5.6576,5.655,5.6526,5.6493,5.6767,5.6767,5.6959,5.6961,5.6962]},{"header":{"parameterUnit":"m.s-1","parameterCategory":1,"la1":30.2991,"la2":30.254,"lo1":-89.0895,"lo2":-89.0444,"dy":0.0017,"dx":0.0017,"nx":28,"ny":28,"refTime":"2023-08-14T09:00:00:Z","depth":0,"parameterNumber":3,"parameterNumberName":"V-component_of_WINDS"},"data":[0,0,0,0,0,0,0,0,0,0,0,0,0,0,0,0,0,0,0,0,0,0,0,0,0,0,0,0,0,0,0,0,0,0,0,0,0,0,0,0,0,0,0,0,0,0,0,0,0,0,0,0,0,0,0,0,0,0,-0.4928,-0.4928,0,-0.4925,-0.4925,-0.4925,-0.4926,-0.4926,-0.4926,-0.4926,-0.4922,-0.4922,-0.4922,0,0,0,0,0,0,0,0,0,0,0,0,0,-0.4935,-0.4935,-0.4928,-0.4928,-0.4928,-0.4925,-0.4925,-0.4925,-0.4926,-0.4926,-0.4926,-0.4926,-0.4922,-0.4922,-0.4922,0,0,0,0,0,0,0,0,0,0,0,0,0,-0.4932,-0.4935,-0.4928,-0.4928,-0.4928,-0.4925,-0.4925,-0.4925,-0.4926,-0.4926,-0.4926,-0.4926,-0.4922,-0.4922,-0.4922,-0.4918,0,0,-0.4921,-0.4921,0,0,0,0,0,0,0,0,-0.4932,-0.4931,-0.4928,-0.4928,-0.4928,-0.4926,-0.4926,-0.4922,-0.4926,-0.4927,-0.4926,-0.4926,-0.4923,-0.4923,-0.4922,-0.4918,-0.4918,-0.4921,-0.4921,-0.4921,-0.4921,0,0,0,0,0,0,0,-0.4932,-0.4932,-0.4927,-0.4928,-0.4928,-0.4928,-0.4928,-0.4925,-0.4924,-0.4927,-0.4927,-0.4926,-0.4923,-0.4922,-0.4922,-0.4917,-0.4921,-0.4921,-0.4921,-0.492,-0.491,-0.491,0,0,0,0,0,0,-0.4932,-0.4932,-0.4927,-0.4927,-0.493,-0.4928,-0.4928,-0.4926,-0.4924,-0.4924,-0.4926,-0.4926,-0.4923,-0.4922,-0.4922,-0.4917,-0.4921,-0.492,-0.492,-0.491,-0.491,-0.491,0,0,0,0,0,0,-0.4932,-0.4932,-0.4927,-0.4929,-0.4929,-0.4928,-0.4926,-0.4926,-0.4925,-0.4924,-0.4924,-0.4925,-0.4923,-0.4922,-0.4919,-0.4917,-0.492,-0.492,-0.491,-0.491,-0.491,-0.4908,0,0,0,0,0,0,-0.4933,-0.4932,-0.4931,-0.4929,-0.4928,-0.4924,-0.4926,-0.4926,-0.4925,-0.4925,-0.4923,-0.4923,-0.4923,-0.4919,-0.4919,-0.4917,-0.492,-0.491,-0.491,-0.491,-0.4908,-0.4908,-0.4907,0,0,0,0,0,-0.4933,-0.493,-0.493,-0.493,-0.4927,-0.4924,-0.4924,-0.4924,-0.4925,-0.4923,-0.4923,-0.4923,-0.4917,-0.4919,-0.4918,-0.4916,-0.4911,-0.491,-0.491,-0.4908,-0.4908,-0.4907,0,0,0,0,0,0,-0.4931,-0.493,-0.493,-0.4927,-0.4926,-0.4924,-0.4923,-0.4923,-0.4921,-0.4921,-0.4921,-0.4921,-0.4917,-0.4917,-0.4918,-0.4913,-0.4914,-0.4914,-0.4913,-0.4913,-0.4912,-0.4912,-0.492,0,0,0,0,0,-0.493,-0.4928,-0.4927,-0.4924,-0.4924,-0.4923,-0.4922,-0.4922,-0.4921,-0.492,-0.4919,-0.4918,-0.4916,-0.4914,-0.4912,-0.4908,-0.4908,-0.4907,-0.4906,-0.4906,-0.4905,-0.4903,-0.4903,-0.4909,-0.4909,-0.4909,0,0,-0.4929,-0.4928,-0.4926,-0.4924,-0.4923,-0.4921,-0.4923,-0.4921,-0.4919,-0.492,-0.4917,-0.4916,-0.4914,-0.4911,-0.4909,-0.491,-0.4904,-0.4905,-0.4905,-0.4905,-0.4903,-0.4902,-0.4902,-0.4909,-0.4909,-0.4909,0,0,-0.4924,-0.4924,-0.4921,-0.492,-0.4919,-0.4918,-0.4918,-0.4916,-0.4916,-0.4913,-0.4914,-0.4912,-0.4908,-0.4907,-0.4906,-0.4901,-0.4902,-0.4901,-0.4898,-0.4896,-0.4896,-0.4895,-0.4894,-0.4893,-0.49,-0.49,-0.49,0,-0.4922,-0.4919,-0.492,-0.4917,-0.4916,-0.4917,-0.4915,-0.4914,-0.4912,-0.4911,-0.4912,-0.4907,-0.4906,-0.4902,-0.4901,-0.49,-0.49,-0.4901,-0.4896,-0.4896,-0.4895,-0.4894,-0.4893,-0.49,-0.49,-0.49,-0.49,0,-0.4917,-0.4915,-0.4913,-0.4911,-0.491,-0.4908,-0.4907,-0.4906,-0.4906,-0.4906,-0.4903,-0.4902,-0.4899,-0.4898,-0.4899,-0.4895,-0.4895,-0.4896,-0.4898,-0.4894,-0.4893,-0.4892,-0.49,-0.49,-0.49,-0.49,0,0,-0.4911,-0.491,-0.4909,-0.4908,-0.4907,-0.4905,-0.4903,-0.4901,-0.49,-0.4898,-0.4896,-0.4893,-0.4894,-0.4893,-0.4893,-0.4891,-0.4888,-0.4892,-0.4892,-0.4891,-0.4883,-0.4883,-0.4882,-0.4888,-0.4888,-0.4888,-0.4884,0,-0.4907,-0.4903,-0.4903,-0.4899,-0.4897,-0.4898,-0.4896,-0.4895,-0.4895,-0.4893,-0.4892,-0.489,-0.4892,-0.4891,-0.4889,-0.4889,-0.4886,-0.4889,-0.4886,-0.4886,-0.4886,-0.4881,-0.488,-0.4876,-0.4883,-0.4883,-0.4883,0,-0.4901,-0.49,-0.4896,-0.4895,-0.4894,-0.4892,-0.489,-0.4889,-0.4888,-0.4887,-0.4886,-0.4886,-0.4884,-0.4886,-0.4882,-0.4884,-0.4883,-0.4883,-0.4882,-0.4882,-0.4884,-0.488,-0.4875,-0.4874,-0.4882,-0.4882,-0.4882,0,-0.4898,-0.4895,-0.4892,-0.4891,-0.489,-0.4889,-0.4888,-0.4887,-0.4886,-0.4884,-0.4883,-0.4881,-0.488,-0.4879,-0.4879,-0.488,-0.4875,-0.4877,-0.4875,-0.4875,-0.4873,-0.4874,-0.4867,-0.4873,-0.4873,-0.4873,-0.4873,0,-0.4893,-0.489,-0.489,-0.4888,-0.4886,-0.4886,-0.4883,-0.4883,-0.4882,-0.488,-0.488,-0.4879,-0.4879,-0.4877,-0.4877,-0.4874,-0.4873,-0.4873,-0.4873,-0.4873,-0.4873,-0.4872,-0.4872,-0.4873,-0.4873,-0.4873,-0.4873,0,-0.4888,-0.4888,-0.4885,-0.4884,-0.4884,-0.4882,-0.4881,-0.4879,-0.4879,-0.4876,-0.4876,-0.4875,-0.4873,-0.4873,-0.487,-0.487,-0.4867,-0.4867,-0.4867,-0.4867,-0.4865,-0.4865,-0.4858,-0.4857,-0.4863,-0.4863,-0.4863,0,-0.4885,-0.4883,-0.4882,-0.488,-0.488,-0.4878,-0.4877,-0.4877,-0.4876,-0.4874,-0.4873,-0.4871,-0.4869,-0.4866,-0.4865,-0.4863,-0.4863,-0.4861,-0.4863,-0.4863,-0.4863,-0.4863,-0.4863,-0.486,-0.486,-0.486,-0.486,0,-0.4879,-0.4879,-0.4877,-0.4876,-0.4874,-0.4873,-0.4872,-0.4871,-0.4871,-0.4869,-0.4867,-0.4866,-0.4864,-0.4862,-0.486,-0.4859,-0.486,-0.486,-0.4859,-0.4859,-0.4859,-0.4859,-0.4866,-0.486,-0.486,-0.486,-0.486,-0.486,-0.4875,-0.4873,-0.4872,-0.487,-0.4869,-0.4868,-0.4866,-0.4866,-0.4864,-0.4863,-0.4863,-0.486,-0.4859,-0.4857,-0.4856,-0.4854,-0.4855,-0.4854,-0.4854,-0.4854,-0.4853,-0.4859,-0.4854,-0.4854,-0.4854,-0.4854,-0.4854,0,-0.4869,-0.4868,-0.4866,-0.4865,-0.4863,-0.4864,-0.4863,-0.4862,-0.486,-0.4859,-0.4857,-0.4855,-0.4853,-0.4852,-0.485,-0.4849,-0.4849,-0.4848,-0.4848,-0.4848,-0.4853,-0.4853,-0.4848,-0.4848,-0.4848,-0.4848,-0.4848,-0.4848,-0.4865,-0.4863,-0.4863,-0.4859,-0.4859,-0.4857,-0.4856,-0.4855,-0.4854,-0.4851,-0.485,-0.485,-0.4849,-0.4847,-0.4845,-0.4845,-0.4844,-0.4843,-0.4843,-0.4847,-0.4848,-0.4848,-0.4849,-0.4843,-0.4843,-0.4839,-0.4839,-0.4839]}]]